Погода в Кулешах

Россия / Орловская область     52°58′58″N   37°23′52″E
темп.,
°C
ветер,
м/с
пор.,
м/с
влажн.,
%
обл.,
%
осадки,
мм/ч
давл.,
гПа
погр.,
м
9 мая, вс
вс900:00+8ююз2699100 0.0 1004348
03:00+6з71096100 0.2 1005578
06:00+3зсз71397100 1.4 1008699
09:00+3сз81396100 2.0 1011793
12:00+5сз81289100 0.2 1014992
15:00+8сз91273100 0.8 10161433
18:00+7сз7127282 0.3 10181313
21:00+4зсз410846 0.3 1020230
10 мая, пн
пн1000:00+4сз614845 0.0 1021321
03:00+3ссз513845 0.0 1023303
06:00+3ссз514790 0.0 1025370
09:00+8с812620 0.0 10251281
12:00+11с911470 0.0 10251560
15:00+12ссв912526 0.0 10241552
18:00+11ссв81363100 0.0 10231238
21:00+10ссв81562100 0.0 1023768
11 мая, вт
вт1100:00+9ссв81769100 0.0 1023569
03:00+7ссв7177959 0.0 1023465
06:00+8св81984100 0.0 1022486
09:00+10св81685100 0.0 1022576
12:00+15всв7117797 0.0 1022968
15:00+11вюв51089100 0.1 1023608
18:00+13в510690 0.0 10241245
21:00+9вюв31087100 0.0 1025240
12 мая, ср
ср1200:00+7юв3587100 0.0 1025103
03:00+8всв3483100 0.0 1025105
06:00+8всв489164 0.0 1024280
09:00+12в5873100 0.0 1023787
12:00+15в6858100 0.0 10221492
15:00+15в796399 0.3 10201417
18:00+13вюв6108054 1.6 1020923
21:00+10вюв410895 2.0 1019201
13 мая, чт
чт1300:00+9вюв51488100 0.0 1019318
03:00+10юв41189100 0.0 1019284
06:00+10вюв399193 0.0 1020265
09:00+14юв58725 0.0 1020618
12:00+18юв57586 0.0 10191325
15:00+19юв565617 0.0 10181509
18:00+18юв3668100 0.0 1017298
21:00+15вюв3378100 0.0 101738